KA2QBS Weather Reports


Display with metric or nautical units.
time (UTC)temp
F
wind
direction
speed
MPH
gust
MPH
rain 1hr
in
rain 24hr
in
rain mn
in
humidity
%
barometer
mb
20260508061535 38 340 0.0 0.0 0.00 0.00 0.00 85 1012.3
20260508060032 37 340 0.0 0.0 0.00 0.00 0.00 86 1012.4
20260508054534 37 340 0.0 0.0 0.00 0.00 0.00 85 1012.4
20260508053034 36 340 0.0 0.0 0.00 0.00 0.00 86 1012.3
20260508051530 36 340 0.0 0.0 0.00 0.00 0.00 86 1012.4
20260508050029 35 340 0.0 2.0 0.00 0.00 0.00 83 1012.4
20260508044527 35 332 0.0 0.0 0.00 0.00 0.00 81 1012.4
20260508043023 37 323 0.0 0.0 0.00 0.00 0.00 79 1012.3
20260508041523 37 323 0.0 0.0 0.00 0.00 0.00 76 1012.3
20260508040024 38 323 0.0 0.0 0.00 0.00 0.00 76 1012.2
20260508034518 38 323 0.0 0.0 0.00 0.00 0.00 78 1011.8
20260508033022 38 323 0.0 0.0 0.00 0.00 0.00 78 1011.8
20260508031526 39 323 0.0 0.0 0.00 0.00 0.00 75 1011.8
20260508030018 40 323 0.0 2.0 0.00 0.00 0.00 71 1012.0
20260508024517 42 302 0.0 0.0 0.00 0.00 0.00 65 1012.0
20260508023026 44 302 0.0 0.0 0.00 0.00 0.00 60 1012.0
20260508021517 44 302 0.0 0.0 0.00 0.00 0.00 61 1012.0
20260508020015 45 302 0.0 0.0 0.00 0.00 0.00 60 1012.2
20260508014533 45 305 0.0 3.0 0.00 0.00 0.00 57 1012.2
20260508013015 45 309 0.0 3.0 0.00 0.00 0.00 54 1012.1
20260508011519 45 309 0.0 0.0 0.00 0.00 0.00 58 1011.9
20260508010024 45 309 0.0 0.0 0.00 0.00 0.00 56 1011.9
20260508004520 45 309 0.0 0.0 0.00 0.00 0.00 56 1011.7
20260508003034 46 309 0.0 4.0 0.00 0.00 0.00 55 1011.5
20260508001513 47 294 2.0 10.0 0.00 0.00 0.00 47 1011.3
20260508000012 47 276 1.0 7.0 0.00 0.00 0.00 48 1011.2
20260507234511 48 277 0.0 5.0 0.00 0.00 0.00 47 1011.2
20260507233012 49 273 0.0 5.0 0.00 0.00 0.00 46 1011.0
20260507231511 50 331 0.0 10.0 0.00 0.00 0.00 44 1011.0
20260507230014 51 286 0.0 12.0 0.00 0.00 0.00 43 1011.1
20260507224513 51 285 2.0 8.0 0.00 0.00 0.00 42 1011.1
20260507223010 52 329 2.0 9.0 0.00 0.00 0.00 43 1011.0
20260507221510 53 355 2.0 6.0 0.00 0.00 0.00 38 1010.9
20260507220008 54 338 3.0 9.0 0.00 0.00 0.00 40 1011.1
20260507214507 53 276 6.0 14.0 0.00 0.00 0.00 40 1011.1
20260507213007 53 285 6.0 18.0 0.00 0.00 0.00 41 1011.0
20260507211506 53 284 6.0 20.0 0.00 0.00 0.00 39 1011.1
20260507210005 53 260 5.0 20.0 0.00 0.00 0.00 40 1011.2
20260507204503 53 294 4.0 20.0 0.00 0.00 0.00 46 1011.2
20260507203006 51 291 2.0 12.0 0.00 0.00 0.00 53 1011.2
20260507201501 50 294 3.0 14.0 0.00 0.00 0.00 53 1011.2
20260507200105 51 280 4.0 10.0 0.00 0.00 0.00 51 1011.3
20260507194603 52 308 7.0 14.0 0.00 0.00 0.00 48 1011.5
20260507193058 53 328 5.0 22.0 0.00 0.00 0.00 48 1011.5
20260507191556 52 296 5.0 12.0 0.00 0.00 0.00 51 1011.8
20260507190053 51 296 8.0 14.0 0.00 0.00 0.00 51 1012.0
20260507184552 50 275 8.0 18.0 0.00 0.00 0.00 52 1012.4
20260507183051 52 328 4.0 14.0 0.00 0.00 0.00 52 1012.3
20260507181551 51 320 5.0 13.0 0.00 0.00 0.00 53 1012.5
20260507180049 52 322 4.0 13.0 0.00 0.00 0.00 55 1012.5
20260507174549 51 290 4.0 13.0 0.00 0.00 0.00 55 1012.5
20260507173044 50 294 3.0 13.0 0.00 0.00 0.00 56 1012.6
20260507171543 50 313 3.0 11.0 0.00 0.00 0.00 58 1012.7
20260507170043 50 335 1.0 11.0 0.00 0.00 0.00 61 1012.9
20260507164540 49 267 6.0 16.0 0.00 0.00 0.00 59 1013.0
20260507163039 49 281 4.0 11.0 0.00 0.00 0.00 65 1013.2
20260507161540 48 286 6.0 17.0 0.00 0.00 0.00 60 1013.5
20260507160039 48 326 4.0 15.0 0.00 0.00 0.00 63 1013.5
20260507154535 48 325 2.0 13.0 0.00 0.00 0.00 66 1013.6
20260507153035 47 309 5.0 12.0 0.00 0.00 0.00 63 1013.7
20260507151533 47 331 1.0 14.0 0.00 0.00 0.00 66 1013.8
20260507150032 47 315 8.0 17.0 0.00 0.00 0.00 63 1013.8
20260507144534 47 308 6.0 13.0 0.00 0.00 0.00 65 1013.9
20260507143032 46 336 2.0 15.0 0.00 0.00 0.00 68 1013.9
20260507141526 45 317 1.0 10.0 0.00 0.00 0.00 69 1014.0
20260507140028 45 308 3.0 13.0 0.00 0.00 0.00 72 1014.0
20260507134527 45 294 2.0 11.0 0.00 0.00 0.00 71 1014.0
20260507133022 44 306 5.0 10.0 0.00 0.00 0.00 72 1014.0
20260507131523 43 300 0.0 9.0 0.00 0.00 0.00 76 1014.0
20260507130016 42 313 1.0 6.0 0.00 0.00 0.00 79 1014.1
20260507124518 41 290 3.0 9.0 0.00 0.00 0.00 78 1014.0
20260507123021 41 324 0.0 4.0 0.00 0.00 0.00 83 1013.9
20260507121513 40 309 0.0 0.0 0.00 0.00 0.00 87 1013.9
20260507120011 39 308 0.0 1.0 0.00 0.00 0.00 89 1013.9
20260507114510 38 286 0.0 0.0 0.00 0.00 0.00 91 1013.9
20260507113009 37 286 0.0 0.0 0.00 0.00 0.00 92 1013.8
20260507111510 37 286 0.0 0.0 0.00 0.00 0.00 92 1013.7
20260507110011 37 286 0.0 0.0 0.00 0.00 0.00 92 1013.5
20260507104505 36 286 0.0 0.0 0.00 0.00 0.00 91 1013.5
20260507103007 36 286 0.0 0.0 0.00 0.00 0.00 93 1013.1
20260507101507 36 286 0.0 0.0 0.00 0.00 0.00 94 1013.2
20260507094603 36 286 0.0 0.0 0.00 0.00 0.00 94 1013.0
20260507093058 37 286 0.0 0.0 0.00 0.00 0.00 94 1013.0
20260507091603 37 286 0.0 5.0 0.00 0.00 0.00 94 1013.1
20260507090111 37 279 0.0 6.0 0.00 0.00 0.00 94 1013.1
20260507084553 38 295 0.0 6.0 0.00 0.00 0.00 94 1013.1
20260507083050 38 305 1.0 4.0 0.00 0.00 0.00 95 1012.9
20260507081555 39 302 0.0 4.0 0.00 0.00 0.00 95 1012.9
20260507080045 39 301 0.0 5.0 0.00 0.00 0.00 95 1012.8
20260507074544 40 305 0.0 4.0 0.00 0.00 0.00 95 1012.7
20260507073055 40 298 1.0 8.0 0.00 0.00 0.00 95 1012.8
20260507071542 40 269 0.0 5.0 0.00 0.00 0.00 96 1012.9
20260507070058 41 303 2.0 6.0 0.00 0.00 0.00 96 1012.8
20260507064539 41 295 2.0 6.0 0.00 0.00 0.00 96 1012.7
20260507063036 41 297 0.0 2.0 0.00 0.00 0.00 96 1012.5